Home   Weather   Luxembourg   Past weeks

Flag for Luxembourg Past Weather in Luxembourg, Luxembourg — Yesterday and Last 2 Weeks

Now
28 °F

Chilly.


Feels Like: 18 °F
Forecast: 29 / 42 °F
Wind: 13 mph from Northeast

Location: Luxembourg Airport

Current Time: Dec 4, 2016 at 3:00:13 am

Latest Report: Dec 4, 2016 at 2:20 am


Visibility: N/A

Pressure: 30.21 "Hg

Humidity: 74%

Dew Point: 21 °F

Location of LuxembourgLocation

Past Weather in Luxembourg — Graph

°F

Luxembourg Temperature Yesterday

Maximum temperature yesterday: 39 °F (at 12:20 am)
Minimum temperature yesterday: 28 °F (at 7:20 am)
Average temperature yesterday: 33 °F

High & Low Weather Summary for the Past Weeks

 TemperatureHumidityPressure
High57 °F (Nov 23, 2:20 pm)100% (Nov 21, 12:20 pm)30.54 "Hg (Nov 21, 12:20 pm)
Low21 °F (Nov 30, 5:20 am)45% (Nov 29, 2:20 pm)29.45 "Hg (Nov 20, 8:20 am)
Average41 °F82%30.05 "Hg
* Reported Nov 19 1:20 am — Dec 4 1:20 am, Luxembourg, Weather by CustomWeather, © 2016

Note: Actual official high and low records may vary slightly from our data, if they occured in-between our weather recording intervals... More about our weather records

Advertising

Luxembourg Weather History for the Previous 24 Hours

Scroll right to see more
 ConditionsComfort  
Time TempWeatherWind HumidityBarometerVisibility
1:20 am
Sun, Dec 4
28 °FChilly.10 mph74%30.21 "HgN/A
12:50 am28 °FChilly.13 mph80%30.21 "HgN/A
11:50 pm
Sat, Dec 3
28 °FClear.16 mph80%30.21 "Hg10 mi
11:20 pm30 °FClear.15 mph75%30.21 "Hg10 mi
10:50 pm30 °FClear.16 mph75%30.21 "Hg10 mi
10:20 pm30 °FClear.14 mph75%30.21 "Hg10 mi
9:50 pm30 °FClear.16 mph75%30.21 "Hg10 mi
9:20 pm30 °FClear.15 mph80%30.21 "Hg10 mi
8:50 pm30 °FClear.17 mph80%30.21 "Hg10 mi
8:20 pm30 °FClear.18 mph80%30.21 "Hg10 mi
7:50 pm30 °FClear.16 mph80%30.21 "Hg10 mi
7:20 pm30 °FClear.16 mph80%30.21 "Hg10 mi
6:50 pm32 °FClear.13 mph75%30.21 "Hg10 mi
6:20 pm32 °FClear.12 mph80%30.18 "Hg10 mi
5:50 pm32 °FClear.13 mph80%30.18 "Hg10 mi
5:20 pm34 °FClear.14 mph75%30.18 "Hg10 mi
4:50 pm34 °FClear.12 mph75%30.18 "Hg10 mi
4:20 pm36 °FSunny.12 mph70%30.18 "Hg10 mi
3:50 pm37 °FSunny.12 mph60%30.18 "Hg10 mi
3:20 pm37 °FSunny.13 mph60%30.18 "Hg10 mi
2:50 pm39 °FSunny.13 mph56%30.18 "Hg10 mi
2:20 pm39 °FSunny.13 mph56%30.18 "Hg10 mi
1:50 pm37 °FSunny.15 mph65%30.18 "Hg10 mi
1:20 pm37 °FSunny.13 mph65%30.18 "Hg10 mi
12:50 pm37 °FSunny.13 mph65%30.18 "Hg10 mi
12:20 pm36 °FSunny.15 mph70%30.18 "Hg10 mi
11:50 am36 °FSunny.13 mph75%30.21 "Hg10 mi
11:20 am34 °FSunny.15 mph81%30.21 "Hg10 mi
10:50 am32 °FSunny.13 mph87%30.21 "Hg10 mi
10:20 am32 °FSunny.13 mph87%30.21 "Hg10 mi
9:50 am30 °FSunny.12 mph93%30.21 "Hg10 mi
9:20 am30 °FSunny.9 mph93%30.18 "Hg10 mi
8:50 am30 °FPassing clouds.10 mph93%30.18 "HgN/A
8:20 am28 °FPassing clouds.8 mph100%30.18 "Hg4 mi
7:50 am28 °FIce fog.10 mph100%30.18 "Hg2 mi
7:20 am28 °FChilly.12 mph100%30.18 "Hg3 mi
6:50 am30 °FIce fog.12 mph93%30.18 "Hg1 mi
6:20 am30 °FIce fog.12 mph100%30.18 "Hg2 mi
5:50 am30 °FIce fog.10 mph100%30.15 "Hg2 mi
5:20 am32 °FIce fog.9 mph93%30.15 "Hg2 mi
4:50 am32 °FIce fog.9 mph100%30.15 "Hg3 mi
4:20 am34 °FFog.9 mph93%30.18 "Hg2 mi
3:50 am34 °FFog.9 mph93%30.15 "Hg3 mi
Weather by CustomWeather, © 2016

See weather overviewHow to use our weather pages